When you browse on this site, cookies collect data to enhance your experience and personalize the content and advertising you see.
Visit our Privacy Policy to learn more. By continuing to use the site, you agree to this use of cookies and data.
  • In Hungary
  • List of Countries
  • For 7 days
  • Water Temperature
  • Weather Map
  • News
  • Weather Widgets
  • user-avatar
    Login

    Hourly Weather Demyancevo

    Today, 16 September, Monday

    Time Temperature Precipitation Wind Pressure Humidity
    00:00 +8°C° 0.2 mm 6 mps 733 mmHg 92%
    01:00 +8°C° 0.2 mm 6 mps 732 mmHg 92%
    02:00 +8°C° 0 mm 5 mps 732 mmHg 90%
    03:00 +8°C° 0.1 mm 5 mps 732 mmHg 91%
    04:00 +8°C° 0.1 mm 5 mps 732 mmHg 92%
    05:00 +7°C° 0.1 mm 4 mps 732 mmHg 94%
    06:00 +8°C° 0 mm 4 mps 732 mmHg 92%
    07:00 +8°C° 0 mm 5 mps 731 mmHg 90%
    08:00 +9°C° 0 mm 5 mps 731 mmHg 88%
    09:00 +9°C° 0.2 mm 5 mps 731 mmHg 86%
    10:00 +10°C° 0.2 mm 5 mps 731 mmHg 83%
    11:00 +10°C° 0.2 mm 5 mps 731 mmHg 81%
    12:00 +10°C° 0.3 mm 6 mps 731 mmHg 80%
    13:00 +10°C° 0.3 mm 6 mps 731 mmHg 80%
    14:00 +10°C° 0.3 mm 6 mps 731 mmHg 80%
    15:00 +10°C° 0.1 mm 6 mps 731 mmHg 81%
    16:00 +10°C° 0.1 mm 5 mps 731 mmHg 82%
    17:00 +10°C° 0.1 mm 4 mps 731 mmHg 84%
    18:00 +10°C° 0.1 mm 4 mps 730 mmHg 85%
    19:00 +9°C° 0.1 mm 5 mps 730 mmHg 87%
    20:00 +8°C° 0.1 mm 5 mps 730 mmHg 88%
    21:00 +8°C° 0 mm 5 mps 730 mmHg 90%
    22:00 +8°C° 0 mm 5 mps 729 mmHg 91%
    23:00 +7°C° 0 mm 5 mps 729 mmHg 93%

    Tomorrow, 17 September, Tuesday

    Time Temperature Precipitation Wind Pressure Humidity
    00:00 +7°C° 0.1 mm 5 mps 729 mmHg 91%
    01:00 +8°C° 0.1 mm 5 mps 729 mmHg 88%
    02:00 +8°C° 0.1 mm 5 mps 730 mmHg 86%
    03:00 +7°C° 0.1 mm 5 mps 730 mmHg 88%
    04:00 +7°C° 0.1 mm 5 mps 730 mmHg 89%
    05:00 +6°C° 0.1 mm 5 mps 729 mmHg 90%
    06:00 +7°C° 0.2 mm 5 mps 730 mmHg 89%
    07:00 +7°C° 0.2 mm 5 mps 730 mmHg 88%
    08:00 +7°C° 0.2 mm 5 mps 731 mmHg 86%
    09:00 +8°C° 0.2 mm 5 mps 731 mmHg 84%
    10:00 +8°C° 0.2 mm 5 mps 731 mmHg 81%
    11:00 +9°C° 0.2 mm 5 mps 732 mmHg 78%
    12:00 +9°C° 0.2 mm 5 mps 732 mmHg 76%
    13:00 +10°C° 0.2 mm 5 mps 732 mmHg 73%
    14:00 +10°C° 0.2 mm 5 mps 732 mmHg 71%
    15:00 +10°C° 0.1 mm 4 mps 732 mmHg 75%
    16:00 +8°C° 0.1 mm 4 mps 732 mmHg 79%
    17:00 +9°C° 0.1 mm 3 mps 732 mmHg 84%
    18:00 +8°C° 0.1 mm 3 mps 733 mmHg 86%
    19:00 +8°C° 0.1 mm 3 mps 733 mmHg 88%
    20:00 +8°C° 0.1 mm 3 mps 733 mmHg 91%
    21:00 +7°C° 0.1 mm 3 mps 733 mmHg 91%
    22:00 +7°C° 0.1 mm 2 mps 733 mmHg 91%
    23:00 +7°C° 0.1 mm 2 mps 733 mmHg 92%

    Day after tomorrow, 18 September, Wednesday

    Time Temperature Precipitation Wind Pressure Humidity
    00:00 +7°C° 0.1 mm 2 mps 733 mmHg 93%
    01:00 +6°C° 0.1 mm 2 mps 733 mmHg 94%
    02:00 +6°C° 0.1 mm 2 mps 733 mmHg 96%
    03:00 +6°C° 0.1 mm 2 mps 733 mmHg 95%
    04:00 +6°C° 0.1 mm 2 mps 733 mmHg 95%
    05:00 +6°C° 0.1 mm 2 mps 733 mmHg 95%
    06:00 +6°C° 0.1 mm 2 mps 733 mmHg 94%
    07:00 +8°C° 0.1 mm 1 mps 734 mmHg 93%
    08:00 +8°C° 0.1 mm 1 mps 734 mmHg 92%
    09:00 +8°C° 0.2 mm 1 mps 734 mmHg 90%
    10:00 +9°C° 0.2 mm 1 mps 734 mmHg 88%
    11:00 +9°C° 0.2 mm 1 mps 734 mmHg 86%
    12:00 +9°C° 0.1 mm 2 mps 734 mmHg 82%
    13:00 +9°C° 0.1 mm 2 mps 734 mmHg 78%
    14:00 +10°C° 0.1 mm 2 mps 735 mmHg 74%
    15:00 +9°C° 0.2 mm 2 mps 735 mmHg 78%
    16:00 +9°C° 0.2 mm 2 mps 735 mmHg 82%
    17:00 +8°C° 0.2 mm 3 mps 735 mmHg 86%
    18:00 +7°C° 0 mm 3 mps 735 mmHg 89%
    19:00 +5°C° 0 mm 3 mps 736 mmHg 92%
    20:00 +4°C° 0 mm 3 mps 736 mmHg 95%
    21:00 +3°C° 0 mm 3 mps 737 mmHg 95%
    22:00 +3°C° 0 mm 3 mps 737 mmHg 95%
    23:00 +2°C° 0 mm 3 mps 737 mmHg 96%

    19 September, Thursday

    Time Temperature Precipitation Wind Pressure Humidity
    00:00 +2°C° 0 mm 3 mps 738 mmHg 96%
    01:00 +1°C° 0 mm 3 mps 738 mmHg 97%
    02:00 +1°C° 0 mm 3 mps 739 mmHg 97%
    03:00 +1°C° 0 mm 3 mps 739 mmHg 97%
    04:00 0°C° 0 mm 3 mps 739 mmHg 97%
    05:00 0°C° 0 mm 3 mps 740 mmHg 97%
    06:00 +1°C° 0 mm 3 mps 740 mmHg 95%
    07:00 +1°C° 0 mm 3 mps 741 mmHg 93%
    08:00 +2°C° 0 mm 3 mps 741 mmHg 91%
    09:00 +3°C° 0 mm 3 mps 742 mmHg 86%
    10:00 +4°C° 0 mm 3 mps 742 mmHg 81%
    11:00 +5°C° 0 mm 3 mps 743 mmHg 77%
    12:00 +5°C° 0.1 mm 3 mps 743 mmHg 72%
    13:00 +7°C° 0.1 mm 3 mps 743 mmHg 67%
    14:00 +7°C° 0.1 mm 3 mps 744 mmHg 62%
    15:00 +7°C° 0.1 mm 3 mps 744 mmHg 66%
    16:00 +6°C° 0.1 mm 2 mps 744 mmHg 70%
    17:00 +5°C° 0.1 mm 2 mps 744 mmHg 73%
    18:00 +5°C° 0 mm 2 mps 744 mmHg 77%
    19:00 +4°C° 0 mm 2 mps 745 mmHg 81%
    20:00 +3°C° 0 mm 2 mps 745 mmHg 85%
    21:00 +2°C° 0 mm 2 mps 745 mmHg 87%
    22:00 +2°C° 0 mm 2 mps 745 mmHg 89%
    23:00 +2°C° 0 mm 2 mps 745 mmHg 91%

    20 September, Friday

    Time Temperature Precipitation Wind Pressure Humidity
    00:00 +1°C° 0 mm 2 mps 746 mmHg 92%
    01:00 +1°C° 0 mm 2 mps 746 mmHg 92%
    02:00 -1°C° 0 mm 2 mps 746 mmHg 93%
    03:00 -1°C° 0 mm 2 mps 746 mmHg 94%
    04:00 -2°C° 0 mm 2 mps 746 mmHg 94%
    05:00 -2°C° 0 mm 2 mps 746 mmHg 94%
    06:00 -1°C° 0 mm 2 mps 746 mmHg 89%
    07:00 +1°C° 0 mm 3 mps 746 mmHg 84%
    08:00 +2°C° 0 mm 3 mps 746 mmHg 79%
    09:00 +3°C° 0 mm 3 mps 747 mmHg 72%
    10:00 +4°C° 0 mm 3 mps 747 mmHg 65%
    11:00 +7°C° 0 mm 3 mps 747 mmHg 58%
    12:00 +6°C° 0.1 mm 4 mps 747 mmHg 55%
    13:00 +6°C° 0.1 mm 4 mps 747 mmHg 52%
    14:00 +6°C° 0.1 mm 4 mps 747 mmHg 49%
    15:00 +5°C° 0 mm 3 mps 747 mmHg 54%
    16:00 +6°C° 0 mm 2 mps 747 mmHg 59%
    17:00 +5°C° 0 mm 2 mps 747 mmHg 64%
    18:00 +3°C° 0 mm 2 mps 747 mmHg 72%
    19:00 +2°C° 0 mm 2 mps 748 mmHg 80%
    20:00 +1°C° 0 mm 2 mps 748 mmHg 88%
    21:00 +1°C° 0 mm 2 mps 748 mmHg 91%
    22:00 -1°C° 0 mm 2 mps 748 mmHg 93%
    23:00 -1°C° 0 mm 2 mps 748 mmHg 95%

    21 September, Saturday

    Time Temperature Precipitation Wind Pressure Humidity
    00:00 -1°C° 0 mm 2 mps 748 mmHg 95%
    01:00 -2°C° 0 mm 2 mps 749 mmHg 96%
    02:00 -2°C° 0 mm 2 mps 749 mmHg 96%
    03:00 -2°C° 0 mm 2 mps 749 mmHg 96%
    04:00 -2°C° 0 mm 2 mps 749 mmHg 96%
    05:00 -2°C° 0 mm 2 mps 749 mmHg 96%
    06:00 -1°C° 0 mm 2 mps 750 mmHg 88%
    07:00 +2°C° 0 mm 2 mps 750 mmHg 80%
    08:00 +3°C° 0 mm 2 mps 750 mmHg 73%
    09:00 +5°C° 0 mm 2 mps 750 mmHg 66%
    10:00 +6°C° 0 mm 2 mps 751 mmHg 60%
    11:00 +8°C° 0 mm 3 mps 751 mmHg 53%
    12:00 +8°C° 0 mm 3 mps 751 mmHg 55%
    13:00 +8°C° 0 mm 3 mps 750 mmHg 56%
    14:00 +8°C° 0 mm 3 mps 750 mmHg 58%
    15:00 +7°C° 0 mm 3 mps 750 mmHg 62%
    16:00 +6°C° 0 mm 2 mps 750 mmHg 67%
    17:00 +6°C° 0 mm 1 mps 750 mmHg 72%
    18:00 +5°C° 0 mm 1 mps 751 mmHg 76%
    19:00 +4°C° 0 mm 1 mps 751 mmHg 81%
    20:00 +3°C° 0 mm 1 mps 751 mmHg 85%
    21:00 +2°C° 0 mm 2 mps 751 mmHg 88%
    22:00 +1°C° 0 mm 2 mps 751 mmHg 90%
    23:00 +1°C° 0 mm 2 mps 751 mmHg 92%
    Show more